If you wish to contribute or participate in the discussions about articles you are invited to join SKYbrary as a registered user

 Actions

Almería International Airport

From SKYbrary Wiki

LEAM
Airport
ICAO: LEAM – IATA: LEI
Summary
Name Almería International Airport
Region Europe
Territory Spain ES.gif
Location , Andalucia
Serving Almeria
Elevation 21.336 m <br />70 ft <br />70 ft21.336 m <br />
Type medium airport
Coordinates 36° 50' 38.17" N, 2° 22' 12.35" W
Runways
Designator Length Width Surface ROPS
8/26 3200 m10,498.688 ft <br /> 45 m147.638 ft <br /> ASP no/no


METAR
Observation LEAM 151600Z 19006KT 160V230 CAVOK 23/16 Q1017
Station Almeria / Aeropuerto
Date/Time 15 October 2021 16:00:00
Wind direction 190°
Wind speed 06 kts
Lowest cloud amount clouds and visibility OK
Temperature 23°C
Dew point 16°C
Humidity 64%
QNH 1017 hPa
Weather condition n/a